sat.trackr.live / text

‹ back to catalog

YOUTHSAT

NORAD 37388 · 2011-015B

PAYLOAD ACTIVE UNKNOWN

§ Identity

Operator
Country
IND
Launch date
2011-04-20
Launch site
SRILR
Launch vehicle
Mass (kg)
RCS (m²)
0.69

External: N2YO · Heavens-Above · Gunter

§ Orbital elements

Epoch: 2026-05-25T04:42:28.719072Z

Period
101.01 min
Inclination
98.3671°
Eccentricity
0.0015520
Mean motion
14.25619113 rev/d
Perigee alt
795.3 km
Apogee alt
817.6 km
Semi-major
7,184.5 km
B*
9.0390e-5
RAAN
120.2891°
Arg perigee
52.4292°
Mean anomaly
318.6513°
Rev number
78,436

§ Raw data

YOUTHSAT1 37388U 11015B   26145.19616573  .00000173  00000+0  90390-4 0  99982 37388  98.3671 120.2891 0015520  52.4292 318.6513 14.25619113784363

JSON: /api/v1/satellites/37388 · /tle

For live sub-satellite position, see the globe view (requires WebGL).

§ Visibility from observer

Set your observer location to see the next 7 days of passes ≥ 10°. The values pass through the URL so the page stays shareable.

No JS? Fill the form by hand. The geolocation button needs JavaScript.

§ Radio — SatNOGS DB

ModeDescriptionDownlinkUplink
FM Mode S TLM 2.254 GHz
FM Mode V LM 149.995 MHz
FM S-band telemetry 2.280 GHz
CW UHF Unknown 400.000 MHz

4 transmitters · refreshed weekly from db.satnogs.org